Regional Weather Roundup
Issued by NWS

Home | Current Version | Previous Version | Graphics & Text | Print | Product List | Glossary On
Versions: 1 2 3 4 5 6 7 8 9 10 11 12 13 14 15 16 17 18 19 20 21 22 23 24 25 26 27 28 29 30 31 32 33 34 35 36 37 38 39 40 41 42 43 44 45 46 47 48 49 50
000
ASUS43 KDTX 202310
RWRMI
MICHIGAN HOURLY REGIONAL WEATHER ROUNDUP
NATIONAL WEATHER SERVICE DETROIT/PONTIAC MI
600 PM EST THU NOV 20 2014

NOTE: "FAIR" INDICATES FEW OR NO CLOUDS BELOW 12,000 FEET WITH NO
SIGNIFICANT WEATHER AND/OR OBSTRUCTION TO VISIBILITY.

MIZ047>049-052>055-059>063-066>070-074>076-081>083-210000-
SOUTHEAST LOWER MICHIGAN

CITY           SKY/WX    TMP DP  RH WIND       PRES   REMARKS
ADRIAN         MOCLDY    22  13  68 W10       30.05R WCI  11
ALMA           CLEAR     17   8  67 W7        30.02R WCI   7
ANN ARBOR      CLOUDY    22  12  65 W13       30.03R WCI  10
BAD AXE        MOCLDY    20   8  60 W13       29.95R WCI   7
CARO           CLEAR     18   7  62 W9        29.97R WCI   6
DETROIT CITY   MOCLDY    25  12  58 W13G22    30.02R WCI  14
DETROIT        MOCLDY    23  12  62 SW14G23   30.03R WCI  11
FLINT          PTCLDY    19  10  68 W14       30.00R WCI   6
GROSSE ILE     MOCLDY    25  16  68 W10G22    30.02R WCI  15
HILLSDALE      LGT SNOW  21  16  81 W8        30.02R WCI  11
HOWELL         CLOUDY    20  15  84 W9        30.01R WCI   9

CITY           SKY/WX    TMP DP  RH WIND       PRES   REMARKS
JACKSON        FLURRIES  21  13  71 W13G21    30.03R WCI   9
LAMBERTVILLE   MOCLDY    27  12  54 W8        30.06R WCI  18
LANSING        MOCLDY    18  13  80 W8        30.04R WCI   8
LAPEER         FAIR      19   8  60 W12G20    29.98R WCI   7
MASON          PTCLDY    19  13  77 W10       30.03R WCI   7
MONROE         MOCLDY    23  18  80 W12       30.03R WCI  12
MT. CLEMENS    LGT SNOW  21  18  89 W12       29.97R WCI   9
PONTIAC        LGT SNOW  19  13  77 W16       30.00R WCI   4
PORT HOPE        N/A     23   6  48 W13G23    29.92R WCI  11
PORT HURON     PTCLDY    18  14  86 W3        29.99R
TRI CITIES     CLEAR     19   7  59 W10       30.01R WCI   7
TROY           FLURRIES  25  15  65 NW9       30.02R WCI  15
SAGINAW HB     CLEAR     21  10  63 W14       30.00R WCI   8
$$
MIZ043>046-050>051-056>058-064>065-071>073-077>080-210000-
SOUTHWEST LOWER MICHIGAN

CITY           SKY/WX    TMP DP  RH WIND       PRES   REMARKS
BATTLE CREEK   LGT SNOW  22  15  75 W10       30.05R WCI  11
BENTON HARBOR  MOCLDY    25   6  44 NW10G29   30.09R WCI  15
BIG RAPIDS     LGT SNOW  18  14  84 W6        29.99R WCI  10
COLDWATER      MOCLDY    24  14  66 W14       30.04R WCI  11
FREMONT        CLOUDY    18  13  80 W8        30.03R WCI   8
HOLLAND        CLOUDY    25  11  55 W14G20    30.06R WCI  13
GRAND RAPIDS   LGT SNOW  20  16  84 W7        30.04R VSB 1   WCI  11
IONIA          FAIR      19  12  74 W12       30.03R WCI   6
KALAMAZOO      LGT SNOW  22  15  75 W16       30.06R WCI   8
LUDINGTON      LGT SNOW  19  11  70 NW12G25   30.04R WCI   7
MARSHALL       MOCLDY    19  14  79 W7        30.03R WCI  10
MOUNT PLEASANT FAIR      18   8  67 W8        30.00R WCI   7
MUSKEGON       CLOUDY    24   7  48 NW18G26   30.05R WCI  10
SOUTH HAVEN    CLOUDY    27  11  50 NW14G21   30.07R WCI  16
$$
MIZ016>042-210000-
NORTHERN LOWER MICHIGAN

CITY           SKY/WX    TMP DP  RH WIND       PRES   REMARKS
BEAVER ISLAND  CLOUDY    21   6  51 NW12G20   29.96R WCI   9
BELLAIRE       LGT SNOW  20  14  76 W7G17     29.98R WCI  11
CADILLAC       LGT SNOW  15  11  85 W7        29.94R WCI   5
CHARLEVOIX     CLOUDY    22  10  60 W15G22    29.97R WCI   9
FRANKFORT      LGT SNOW  20  14  79 W13G21    30.00R WCI   7
GAYLORD        LGT SNOW  15  12  88 W8        29.90R FOG     WCI   4
GRAYLING       LGT SNOW  16  12  86 W8        29.94R WCI   5
HARBOR SPRINGS LGT SNOW  20  11  67 W14G22    29.94R WCI   7
HOUGHTON LAKE  LGT SNOW  14  10  84 W6        29.95R FOG     WCI   5
MANISTEE       MOCLDY    19   7  58 NW17      30.02R WCI   4
OSCODA         MOCLDY    19  10  69 W12       29.93R WCI   6
PELLSTON       LGT SNOW  20  14  77 NW17      29.93R WCI   5
ROGERS CITY    LGT SNOW  21  17  87 W12G23    29.89R WCI   9
TRAVERSE CITY  LGT SNOW  18  12  77 W8        29.99R WCI   8
$$
MIZ007>008-015-210000-
EASTERN UPPER MICHIGAN

CITY           SKY/WX    TMP DP  RH WIND       PRES   REMARKS
KINROSS        CLOUDY    19  19 100 W7        29.88R WCI  10
MACKINAC ISLAN PTCLDY    19  14  78 NW18G28   29.91R WCI   4
NEWBERRY       LGT SNOW  16  14  91 W7        29.93R WCI   6
S. S. MARIE    LGT SNOW  20  17  88 NW7       29.87R VSB 1   WCI  11
MUNISING         N/A     18   2  49 W9        29.99R WCI   7
$$
MIZ004>006-011>014-085-210000-
CENTRAL UPPER MICHIGAN

CITY           SKY/WX    TMP DP  RH WIND       PRES   REMARKS
MANISTIQUE     PTCLDY    15   0  52 NW10      29.98R WCI   2
ESCANABA       PTCLDY    12   3  67 W9        30.02R WCI   0
MENOMINEE      PTCLDY    16  -2  45 NW5       30.05R WCI   9
SAWYER-GWINN   PTCLDY     9   1  72 W3        29.97R
$$
MIZ001>003-009>011-084-210000-
WESTERN UPPER MICHIGAN

CITY           SKY/WX    TMP DP  RH WIND       PRES   REMARKS
IRON MOUNTAIN  FLURRIES  11   6  81 NW5       30.01R WCI   3
HOUGHTON       LGT SNOW  10   4  76 NW10      29.97R WCI  -4
COPPER HARBOR    N/A     14   8  77 N14G22    29.99R WCI  -1
IRONWOOD       CLOUDY    10   7  85 W17       30.01R WCI  -7
$$

ABBREVIATIONS USED IN REMARKS
   TC - TEMPERATURE IN CELSIUS
  WCI - WIND CHILL INDEX
   HX - HEAT INDEX
  VSB - VISIBILITY



USA.gov is the U.S. government's official web portal to all federal, state and local government web resources and services.